Weather in Santa Teresita

Argentina     36°32′44″S   56°41′28″W
temp.,
°C
wind,
m/s
gust,
m/s
humid.,
%
clouds,
%
prec.,
mm/h
press.,
hPa
HPBL,
m
8 august, mon
mon800:00+5se35839 0.0 1028132
03:00+5se358519 0.0 1028135
06:00+6se368361 0.0 1028163
09:00+9ese356792 0.0 1030665
12:00+12ese345596 0.0 10301382
15:00+11se3359100 0.0 1029516
18:00+10se3671100 0.0 1029176
21:00+9se3676100 0.1 1031171
9 august, tue
tue900:00+9ese3677100 0.0 1032214
03:00+9ese2576100 0.1 1031180
06:00+9se237925 0.0 103194
09:00+9se24805 0.0 1033171
12:00+12e32565 0.0 10331032
15:00+12e325560 0.0 10311079
18:00+9ene247213 0.0 1031103
21:00+7ne23860 0.0 103144
10 august, wed
wed1000:00+7ne23872 0.0 103147
03:00+6nne228681 0.0 103032
06:00+6n22870 0.0 102934
09:00+9n25845 0.0 1029193
12:00+13n456118 0.0 1028847
15:00+12n4662100 0.0 1026737
18:00+9nne3781100 0.0 1025217
21:00+8nne3685100 0.0 1025145
11 august, thu
thu1100:00+9nne4118823 0.0 1024308
03:00+9n310925 0.0 1023237
06:00+8nnw38940 0.0 1023188
09:00+10nnw410880 0.0 1023546
12:00+13nnw610710 0.0 1022716
15:00+14n610665 0.0 1020761
18:00+11n512791 0.0 1019330
21:00+10nne38920 0.0 1019163
12 august, fri
fri1200:00+12nnw413870 0.0 1019355
03:00+11nnw412940 0.0 1019375
06:00+10nnw411960 0.0 1019301
09:00+12nnw48910 0.0 1020331
12:00+16nnw45715 0.0 1019653
15:00+16n33706 0.0 1018611
18:00+11nne239170 0.0 101857
21:00+10nne22940 0.0 102037